Погода в Половинном

Россия / Курганская область     54°47′27″N   65°58′40″E
темп.,
°C
ветер,
м/с
пор.,
м/с
влажн.,
%
обл.,
%
осадки,
мм/ч
давл.,
гПа
погр.,
м
13 апреля, вт
вт1323:00+2ссз36100100 0.1 1038100
02:00+2с36100100 0.0 103995
05:00+1с229836 0.0 104027
08:00+1с11100100 0.1 104128
11:00+3ююз11100100 0.1 1042111
14:00+6юз2397100 0.0 1042298
17:00+6ююз229433 0.0 104155
20:00+2ююз45965 0.0 104074
14 апреля, ср
ср1423:00+2ююз479792 0.0 1040139
02:00+1ююз48940 0.0 1038139
05:000юз410935 0.0 1037175
08:00+3юз51087100 0.0 1036258
11:00+8зюз586811 0.0 1034382
14:00+12зюз68605 0.0 1032595
17:00+13зюз47635 0.0 1031427
20:00+9зюз44735 0.0 103043
15 апреля, чт
чт1523:00+8зюз45765 0.0 102952
02:00+7зюз34785 0.0 102943
05:00+6зюз33795 0.0 102832
08:00+8зюз35765 0.0 1027133
11:00+14зюз45595 0.0 1026416
14:00+16зюз45515 0.0 1024748
17:00+17зюз45495 0.0 1022804
20:00+12юз45644 0.0 102156
16 апреля, пт
пт1623:00
02:00+8зюз45675 0.0 101859
05:00+6зюз34705 0.0 101748
08:00+9з356761 0.0 1016137
11:00+13зсз235899 0.0 1015402
14:00+16сз3447100 0.0 10141202
17:00+15с5556100 0.0 1013863
20:00+7ссв71087100 0.0 1016452
17 апреля, сб
сб1723:00+7св5787100 0.0 1013432
02:00+3ссв61097100 0.1 1016637
05:00+2св6996100 0.6 1017644
08:00+2св6876100 0.0 1018757
11:00+4св55546 0.0 10171131
14:00+6св444514 0.0 10161517
17:00+6ссв334197 0.0 10151710
20:00+4всв2355100 0.0 101459